Hourly Data Report for September 14, 2017

All times are specified in Local Standard Time (LST). Add 1 hour to adjust for Daylight Saving Time where and when it is observed.

NORTH CAPE
PRINCE EDWARD ISLAND

47°03'29.000" N
63°59'55.000" W
7.60 m
8300516
71987
WNE

Download Data

Hourly Data (September 2017)
Hourly Data Report for September 14, 2017
Temp Definition
°C
Dew Point Temp Definition
°C
Rel Hum Definition
%
Wind Dir Definition
10's deg

Wind Spd Definition
km/h
Visibility Definition
km
Stn Press Definition
kPa
Hmdx Definition


Wind Chill Definition


Weather Definition


TIME
00:00 18.0 13.8 76 23 36   100.28     LegendNANA
01:00 18.0 13.5 75 23 35   100.31     LegendNANA
02:00 17.9 13.7 76 23 31   100.32     LegendNANA
03:00 17.6 13.7 78 23 32   100.34     LegendNANA
04:00 17.3 13.7 80 23 29   100.37     LegendNANA
05:00 17.2 13.8 81 23 25   100.41     LegendNANA
06:00 16.9 14.0 83 23 27   100.46     LegendNANA
07:00 16.9 13.8 82 23 30   100.52     LegendNANA
08:00 17.1 14.2 83 23 26   100.57     LegendNANA
09:00 17.1 14.3 84 24 28   100.62     LegendNANA
10:00 17.3 14.5 83 24 25   100.64     LegendNANA
11:00 18.0 14.9 82 23 21   100.66     LegendNANA
12:00 18.4 15.1 81 23 20   100.65     LegendNANA
13:00 19.3 15.7 80 23 16   100.66     LegendNANA
14:00 20.7 15.2 71 23 15   100.64 25   LegendNANA
15:00 21.4 15.3 69 26 6   100.66 26   LegendNANA
16:00 20.5 15.5 73 12 12   100.67 25   LegendNANA
17:00 18.9 15.4 80 9 11   100.72     LegendNANA
18:00 17.8 15.2 85 7 11   100.79     LegendNANA
19:00 17.7 14.7 83 11 8   100.86     LegendNANA
20:00 18.1 14.1 77 6 5   100.95     LegendNANA
21:00 17.4 14.1 81 33 1   101.02     LegendNANA
22:00 15.7 14.1 90 6 23   101.10     LegendNANA
23:00 15.4 12.8 85 7 25   101.17     LegendNANA

Notes on Data Quality.

Legend

  • E = Estimated
  • M = Missing
  • NA = Not Available
  • ‡ = Partner data that is not subject to review by the National Climate Archives
Date modified: